FW5761 Weather Reports


time (UTC)temp
C
wind
direction
speed
KPH
gust
KPH
rain 1hr
cm
rain 24hr
cm
rain mn
cm
humidity
%
barometer
mb
20260507202923 13 293 0.0 0.0 0.00 0.00 1.85 79 1001.2
20260507201903 13 293 0.0 0.0 0.00 0.00 1.85 78 1000.9
20260507200843 13 270 0.0 0.0 0.00 0.00 1.85 77 1001.2
20260507200333 13 270 0.0 0.0 0.00 0.00 1.85 77 1000.9
20260507195823 13 270 0.0 0.0 0.00 0.00 1.85 76 1000.5
20260507195312 13 293 0.0 0.0 0.00 0.00 1.85 76 1000.7
20260507194803 14 270 0.0 0.0 0.00 0.00 1.85 76 1000.4
20260507194253 14 270 0.0 0.0 0.00 0.00 1.85 76 999.9
20260507193742 14 270 0.0 0.0 0.00 0.00 1.85 75 999.4
20260507192722 14 270 0.0 0.0 0.00 0.00 1.85 75 999.0
20260507192212 14 270 0.0 0.0 0.00 0.00 1.85 75 998.8
20260507191153 14 270 0.0 0.0 0.00 0.00 1.85 73 999.2
20260507190642 15 248 0.0 0.0 0.00 0.00 1.85 72 999.6
20260507190132 14 270 0.0 0.0 0.00 0.00 1.85 73 999.8
20260507185112 15 248 0.0 0.0 0.00 0.00 1.85 74 1000.3
20260507184601 14 270 0.0 0.0 0.00 0.00 1.85 75 1000.7
20260507184051 14 270 0.0 0.0 0.00 0.00 1.85 75 1001.7
20260507183541 14 270 0.0 0.0 0.00 0.00 1.85 76 1001.7
20260507183031 14 293 0.0 0.0 0.00 0.00 1.85 76 1001.6
20260507181457 14 270 0.0 0.0 0.00 0.00 1.85 77 1001.4
20260507180947 14 293 0.0 0.0 0.00 0.00 1.85 77 1001.5
20260507180440 14 270 0.0 0.0 0.00 0.00 1.85 77 1001.6
20260507175930 14 248 0.0 0.0 0.00 0.00 1.85 77 1001.9
20260507175420 13 315 0.0 0.0 0.00 0.00 1.85 77 1002.4
20260507174909 14 293 0.0 0.0 0.00 0.00 1.85 77 1002.9
20260507174401 14 293 0.0 0.0 0.00 0.00 1.85 78 1003.0
20260507173851 13 293 0.0 0.0 0.00 0.00 1.85 78 1003.0
20260507173339 13 248 0.0 0.0 0.00 0.00 1.85 78 1002.8
20260507172829 13 293 0.0 0.0 0.00 0.00 1.85 78 1003.0
20260507172319 13 293 0.0 0.0 0.00 0.00 1.85 77 1002.8
20260507171809 13 293 0.0 0.0 0.00 0.00 1.85 77 1002.6
20260507171258 13 293 0.0 0.0 0.00 0.00 1.85 78 1002.2
20260507170749 13 270 0.0 0.0 0.00 0.00 1.85 78 1001.5
20260507165728 13 248 0.0 0.0 0.00 0.00 1.85 79 1000.6
20260507164158 14 248 0.0 0.0 0.00 0.00 1.85 78 1001.0
20260507163649 14 270 0.0 0.0 0.00 0.00 1.85 79 1001.2
20260507162628 14 270 0.0 0.0 0.00 0.00 1.85 78 1001.8
20260507162118 14 248 0.0 0.0 0.00 0.00 1.85 78 1001.9
20260507161608 14 248 0.0 0.0 0.00 0.00 1.85 78 1002.4
20260507161058 14 248 0.0 0.0 0.00 0.00 1.85 79 1002.5
20260507160037 14 270 0.0 0.0 0.00 0.00 1.85 80 1002.2
20260507155530 15 225 0.0 0.0 0.00 0.00 1.85 81 1002.1
20260507155018 14 270 0.0 0.0 0.00 0.00 1.85 81 1001.7
20260507153957 14 248 0.0 0.0 0.00 0.00 1.85 82 1001.6
20260507153447 14 248 0.0 0.0 0.00 0.00 1.85 81 1001.2
20260507151917 14 270 0.0 0.0 0.00 0.00 1.85 83 1001.2
20260507054041 17 203 0.0 0.0 0.00 0.00 1.85 99 999.8
20260507053531 17 225 0.0 0.0 0.00 0.00 1.85 99 999.9
20260507052512 17 270 0.0 0.0 0.00 0.00 1.85 99 1001.9
20260507052001 17 248 0.0 0.0 0.00 0.00 1.85 99 1001.8
20260507051136 17 270 0.0 0.0 1.85 2.03 1.85 99 1002.5
20260507050115 17 225 0.0 0.0 1.75 1.93 1.80 99 998.9
20260507045606 17 225 0.0 0.0 1.50 1.68 1.50 99 999.1
20260507045056 17 180 0.0 0.0 1.22 1.42 1.22 99 999.6
20260507044545 17 225 0.0 0.0 0.81 0.99 0.86 99 1000.3
20260507044035 17 203 0.0 0.0 0.48 0.66 0.53 98 999.8
20260507043525 18 203 0.0 0.0 0.03 0.20 0.10 96 1000.2
20260507043015 18 248 0.0 0.0 0.00 0.18 0.00 90 999.6
20260507042504 19 248 0.0 0.0 0.00 0.18 0.00 88 999.5
20260507041954 20 225 0.0 0.0 0.00 0.18 0.00 86 1000.1
20260507041445 20 248 0.0 0.0 0.00 0.18 0.00 83 999.9
20260507040936 21 248 0.0 0.0 0.00 0.18 0.00 80 999.9
20260507040425 22 225 0.0 0.0 0.00 0.18 0.00 76 999.1
20260507035915 25 0 0.0 0.0 0.00 0.18 0.00 82 998.1
20260507035404 25 0 0.0 0.0 0.00 0.18 0.00 82 997.7
20260507034855 25 338 0.0 0.0 0.00 0.18 0.00 82 997.7
20260507034344 25 338 0.0 0.0 0.00 0.18 0.00 83 997.4
20260507033834 25 0 0.0 0.0 0.00 0.18 0.00 83 996.8
20260507033323 25 0 0.0 0.0 0.00 0.18 0.00 84 996.8
20260507032305 25 338 0.0 0.0 0.00 0.18 0.00 84 996.9
20260507031754 25 338 0.0 0.0 0.00 0.18 0.00 84 997.1
20260507031243 25 338 0.0 0.0 0.00 0.18 0.00 83 996.8
20260507030733 25 0 0.0 0.0 0.00 0.18 0.00 83 996.6
20260507030222 25 0 0.0 0.0 0.00 0.18 0.00 83 996.7
20260507025712 25 0 0.0 0.0 0.00 0.18 0.18 83 997.1
20260507024653 25 0 0.0 0.0 0.00 0.18 0.18 83 997.3
20260507024143 25 338 0.0 0.0 0.00 0.18 0.18 83 997.4
20260507023632 25 0 0.0 0.0 0.00 0.18 0.18 83 997.7
20260507023122 25 0 0.0 0.0 0.00 0.18 0.18 83 997.7
20260507022612 25 23 0.0 0.0 0.00 0.18 0.18 83 997.9
20260507021607 25 0 0.0 0.0 0.00 0.18 0.18 83 997.9
20260507021042 25 0 0.0 0.0 0.00 0.18 0.18 83 997.7
20260507020532 25 0 0.0 0.0 0.00 0.18 0.18 82 997.7
20260507020028 25 338 0.0 0.0 0.00 0.18 0.18 83 997.8
20260507015511 25 23 0.0 0.0 0.00 0.18 0.18 83 997.9
20260507015001 25 23 0.0 0.0 0.00 0.18 0.18 83 997.9
20260507014452 25 0 0.0 0.0 0.00 0.18 0.18 83 998.3
20260507013942 25 23 0.0 0.0 0.00 0.18 0.18 83 998.3
20260507013431 25 45 0.0 0.0 0.00 0.18 0.18 84 998.4
20260507012410 25 23 0.0 0.0 0.00 0.18 0.18 84 998.6
20260507011900 25 23 0.0 0.0 0.00 0.18 0.18 83 998.9
20260507011351 25 0 0.0 0.0 0.00 0.18 0.18 83 998.9
20260507010841 25 23 0.0 0.0 0.00 0.18 0.18 83 999.1
20260507010330 25 23 0.0 0.0 0.00 0.18 0.18 83 999.3
20260507005820 25 23 0.0 0.0 0.00 0.18 0.18 83 999.4
20260507005310 25 338 0.0 0.0 0.00 0.18 0.18 82 999.7
20260507004250 25 0 0.0 0.0 0.00 0.18 0.18 81 999.2
20260507003740 26 0 0.0 0.0 0.00 0.18 0.18 81 998.9
20260507003230 26 23 0.0 0.0 0.00 0.18 0.18 81 998.9
20260507001659 26 0 0.0 0.0 0.00 0.18 0.18 80 998.4
20260507001149 26 0 0.0 0.0 0.00 0.18 0.18 80 998.8
20260507000129 26 45 0.0 0.0 0.00 0.18 0.18 81 998.9
20260506235110 26 23 0.0 0.0 0.00 0.18 0.18 80 999.0
20260506234559 26 23 0.0 0.0 0.00 0.18 0.18 80 999.1
20260506234049 26 23 0.0 0.0 0.00 0.18 0.18 80 999.0
20260506233539 26 23 0.0 0.0 0.00 0.18 0.18 79 999.1
20260506233029 26 23 0.0 0.0 0.00 0.18 0.18 79 999.1
20260506232009 26 0 0.0 0.0 0.00 0.18 0.18 78 999.3
20260506231459 26 23 0.0 0.0 0.00 0.18 0.18 78 999.2
20260506230948 26 23 0.0 0.0 0.00 0.18 0.18 78 999.2
20260506230439 26 23 0.0 0.0 0.00 0.18 0.18 78 999.2
20260506225929 26 23 0.0 0.0 0.00 0.18 0.18 79 999.2
20260506225419 26 0 0.0 0.0 0.00 0.18 0.18 79 998.9
20260506224908 26 45 0.0 0.0 0.00 0.18 0.18 78 999.3
20260506224357 26 23 0.0 0.0 0.00 0.18 0.18 78 999.4
20260506223848 26 45 0.0 0.0 0.00 0.18 0.18 78 999.5
20260506223337 26 45 0.0 0.0 0.00 0.18 0.18 78 999.5
20260506222827 26 23 0.0 0.0 0.00 0.18 0.18 78 999.5
20260506222317 26 45 0.0 0.0 0.00 0.18 0.18 79 999.6
20260506221807 26 23 0.0 0.0 0.00 0.18 0.18 78 999.9
20260506220747 26 23 0.0 0.0 0.00 0.18 0.18 78 1000.0
20260506220236 27 23 0.0 0.0 0.00 0.18 0.18 78 999.9
20260506215726 27 45 0.0 0.0 0.00 0.18 0.18 78 1000.3
20260506215216 27 23 0.0 0.0 0.00 0.18 0.18 77 1000.1
20260506214706 27 23 0.0 0.0 0.00 0.18 0.18 76 1000.2
20260506214156 27 23 0.0 0.0 0.00 0.18 0.18 76 1000.4
20260506213646 27 23 0.0 0.0 0.00 0.18 0.18 75 1000.6
20260506213138 27 45 0.0 0.0 0.00 0.18 0.18 75 1000.6
20260506212626 27 23 0.0 0.0 0.00 0.18 0.18 75 1000.6
20260506212118 27 23 0.0 0.0 0.00 0.18 0.18 75 1000.5
20260506211605 27 23 0.0 0.0 0.00 0.18 0.18 75 1000.5
20260506211055 27 45 0.0 0.0 0.00 0.18 0.18 76 1000.5
20260506210545 27 45 0.0 0.0 0.00 0.18 0.18 76 1000.8
20260506205015 28 23 0.0 0.0 0.00 0.18 0.18 75 1000.7
20260506204511 28 23 0.0 0.0 0.00 0.18 0.18 75 1000.6
20260506203954 28 45 0.0 0.0 0.00 0.18 0.18 74 1000.7
20260506203445 28 45 0.0 0.0 0.00 0.18 0.18 74 1000.7